M I D A S
Marine Information and Data Acquisition System
Tripno 878 of the Zeeleeuw from 2005-04-06 07:09:20 to 2005-04-06 10:59:48
Back to CruiseResearch ActivitiesStationsMapUnderway DataData graphs

EquipmentUnitsComments
TimeDGPSUTC
LatitudeDGPSDM.mWGS84
LongitudeDGPSDM.mWGS84
SpeedMeteo Stationm/sRelative wind speed
DirectionMeteo StationdegRelative wind direction
TemperatureMeteo Stationdeg CelciusAir temperature
PressureMeteo StationPaAtmospheric pressure
HumidityMeteo Station%Relative humidity
Missing or incorrect values are displayed as -999
Metereological data collected by the RV Zeeleeuw from 2005-04-06 07:07:31 to 2005-04-06 11:13:34
                                                                                    Next 1000 lines
Time Latitude Longitude Speed Direction Temperature Pressure Humidity
2005-04-06 07:07:41 51°13.596 2°56.097 3.1 68 7.2 101720 67
2005-04-06 07:07:46 51°13.597 2°56.093 2.2 96 7.2 101720 67
2005-04-06 07:07:51 51°13.598 2°56.088 2.1 59 7.2 101720 67
2005-04-06 07:07:57 51°13.6 2°56.081 3.1 86 7.2 101720 68
2005-04-06 07:08:02 51°13.602 2°56.076 4.3 95 7.2 101720 68
2005-04-06 07:08:07 51°13.604 2°56.068 4.1 102 7.2 101720 67
2005-04-06 07:08:12 51°13.607 2°56.06 2.3 123 7.2 101720 67
2005-04-06 07:08:17 51°13.609 2°56.052 1.4 126 7.2 101720 67
2005-04-06 07:08:22 51°13.612 2°56.044 1.5 93 7.2 101720 67
2005-04-06 07:08:27 51°13.614 2°56.037 1 71 7.2 101720 67
2005-04-06 07:08:32 51°13.617 2°56.029 1.2 148 7.2 101720 67
2005-04-06 07:08:37 51°13.619 2°56.021 2.6 115 7.2 101720 68
2005-04-06 07:08:42 51°13.622 2°56.013 3.9 110 7.2 101720 68
2005-04-06 07:08:47 51°13.624 2°56.005 4.3 97 7.2 101720 68
2005-04-06 07:08:52 51°13.627 2°55.997 4.2 91 7.2 101720 68
2005-04-06 07:08:57 51°13.629 2°55.987 3.5 95 7.2 101720 68
2005-04-06 07:09:01 51°13.632 2°55.98 2.5 132 7.2 101720 68
2005-04-06 07:09:07 51°13.635 2°55.971 2.2 145 7.2 101720 67
2005-04-06 07:09:12 51°13.639 2°55.959 2.4 98 7.2 101720 67
2005-04-06 07:09:17 51°13.643 2°55.949 1.7 106 7.2 101710 67
2005-04-06 07:09:22 51°13.646 2°55.941 5.4 150 7.2 101710 67
2005-04-06 07:09:27 51°13.65 2°55.932 5.1 105 7.2 101720 67
2005-04-06 07:09:32 51°13.653 2°55.922 5.1 85 7.2 101720 67
2005-04-06 07:09:37 51°13.656 2°55.913 4.8 125 7.2 101720 67
2005-04-06 07:09:41 51°13.658 2°55.906 3.4 112 7.2 101720 67
2005-04-06 07:09:47 51°13.66 2°55.896 3.1 128 7.2 101710 67
2005-04-06 07:09:52 51°13.663 2°55.885 2.4 129 7.2 101710 67
2005-04-06 07:09:57 51°13.665 2°55.875 2.6 144 7.2 101720 67
2005-04-06 07:10:02 51°13.667 2°55.866 3.6 137 7.2 101720 67
2005-04-06 07:10:07 51°13.668 2°55.856 2.2 150 7.2 101710 67
2005-04-06 07:10:12 51°13.67 2°55.844 2 142 7.2 101710 67
2005-04-06 07:10:17 51°13.672 2°55.835 2.1 133 7.2 101720 67
2005-04-06 07:10:23 51°13.673 2°55.823 4.3 130 7.2 101720 67
2005-04-06 07:10:27 51°13.674 2°55.816 3.3 127 7.2 101720 67
2005-04-06 07:10:31 51°13.675 2°55.808 3.4 120 7.2 101720 67
2005-04-06 07:10:37 51°13.675 2°55.798 2.4 118 7.2 101720 68
2005-04-06 07:10:42 51°13.676 2°55.793 4.2 142 7.2 101720 68
2005-04-06 07:10:47 51°13.677 2°55.787 3.4 111 7.2 101710 67
2005-04-06 07:10:52 51°13.677 2°55.783 5.5 129 7.2 101710 67
2005-04-06 07:10:56 51°13.677 2°55.781 5.5 123 7.2 101710 67
2005-04-06 07:11:01 51°13.677 2°55.779 3.9 111 7.2 101710 67
2005-04-06 07:11:07 51°13.678 2°55.779 5.2 95 7.3 101710 67
2005-04-06 07:11:12 51°13.679 2°55.78 6.3 227 7.3 101710 67
2005-04-06 07:11:17 51°13.68 2°55.782 4.6 135 7.3 101710 67
2005-04-06 07:11:21 51°13.682 2°55.784 4.9 134 7.3 101710 67
2005-04-06 07:11:26 51°13.683 2°55.787 4.3 226 7.3 101710 67
2005-04-06 07:11:33 51°13.686 2°55.791 4.1 161 7.3 101710 67
2005-04-06 07:11:36 51°13.687 2°55.792 4.1 172 7.3 101710 67
2005-04-06 07:11:41 51°13.689 2°55.794 4.1 162 7.3 101710 67
2005-04-06 07:11:46 51°13.689 2°55.794 4.1 161 7.3 101710 67
2005-04-06 07:11:52 51°13.689 2°55.794 5.2 150 7.3 101710 67
2005-04-06 07:11:57 51°13.689 2°55.794 7 149 7.3 101710 67
2005-04-06 07:12:01 51°13.688 2°55.794 8.4 150 7.3 101710 67
2005-04-06 07:12:07 51°13.688 2°55.794 7 151 7.3 101710 67
2005-04-06 07:12:11 51°13.689 2°55.794 6.7 159 7.3 101710 67
2005-04-06 07:12:17 51°13.691 2°55.796 5.4 169 7.3 101710 67
2005-04-06 07:12:21 51°13.693 2°55.797 6.5 163 7.3 101710 67
2005-04-06 07:12:27 51°13.696 2°55.797 3.6 173 7.3 101710 67
2005-04-06 07:12:32 51°13.699 2°55.798 4.7 184 7.3 101710 67
2005-04-06 07:12:37 51°13.7 2°55.798 4.2 191 7.3 101700 67
2005-04-06 07:12:42 51°13.701 2°55.799 4.3 190 7.3 101700 67
2005-04-06 07:12:46 51°13.701 2°55.799 2.7 191 7.3 101710 66
2005-04-06 07:12:52 51°13.699 2°55.8 4.7 187 7.3 101710 66
2005-04-06 07:12:56 51°13.699 2°55.8 2.5 190 7.3 101710 67
2005-04-06 07:13:02 51°13.698 2°55.801 3.2 198 7.3 101710 67
2005-04-06 07:13:07 51°13.698 2°55.801 3.2 214 7.4 101710 69
2005-04-06 07:13:11 51°13.7 2°55.801 2.9 206 7.4 101710 69
2005-04-06 07:13:16 51°13.702 2°55.8 2.8 229 7.4 101710 67
2005-04-06 07:13:21 51°13.706 2°55.797 2.7 256 7.4 101710 67
2005-04-06 07:13:27 51°13.71 2°55.793 3 263 7.5 101710 67
2005-04-06 07:13:31 51°13.713 2°55.788 2.8 244 7.5 101710 67
2005-04-06 07:13:37 51°13.717 2°55.781 3.9 243 7.6 101710 68
2005-04-06 07:13:41 51°13.72 2°55.775 5.2 269 7.6 101710 68
2005-04-06 07:13:46 51°13.724 2°55.767 4.6 269 7.6 101710 67
2005-04-06 07:13:52 51°13.729 2°55.758 4.9 267 7.6 101710 67
2005-04-06 07:13:57 51°13.733 2°55.751 3.2 260 7.6 101710 66
2005-04-06 07:14:02 51°13.737 2°55.743 3.7 247 7.6 101710 66
2005-04-06 07:14:06 51°13.741 2°55.736 2.4 254 7.6 101710 66
2005-04-06 07:14:11 51°13.745 2°55.728 2.3 294 7.6 101710 66
2005-04-06 07:14:17 51°13.75 2°55.719 2.2 328 7.6 101710 65
2005-04-06 07:14:22 51°13.756 2°55.709 1.5 315 7.6 101710 65
2005-04-06 07:14:27 51°13.762 2°55.7 1.5 264 7.6 101710 65
2005-04-06 07:14:30 51°13.766 2°55.694 2 327 7.6 101710 65
2005-04-06 07:14:37 51°13.774 2°55.682 2.4 319 7.6 101710 65
2005-04-06 07:14:41 51°13.781 2°55.675 2.3 307 7.6 101710 65
2005-04-06 07:14:47 51°13.788 2°55.666 1.9 320 7.6 101710 65
2005-04-06 07:14:52 51°13.796 2°55.658 4.1 276 7.6 101710 65
2005-04-06 07:14:56 51°13.803 2°55.651 4.2 268 7.6 101700 66
2005-04-06 07:15:01 51°13.81 2°55.643 3.2 270 7.6 101700 66
2005-04-06 07:15:07 51°13.819 2°55.635 4.3 244 7.6 101710 66
2005-04-06 07:15:11 51°13.826 2°55.629 2.7 286 7.6 101710 66
2005-04-06 07:15:15 51°13.833 2°55.624 2.2 292 7.6 101700 66
2005-04-06 07:15:22 51°13.846 2°55.614 1.2 252 7.6 101700 66
2005-04-06 07:15:27 51°13.855 2°55.607 1.3 250 7.6 101700 65
2005-04-06 07:15:31 51°13.863 2°55.602 1.7 244 7.6 101700 65
2005-04-06 07:15:37 51°13.874 2°55.593 1.6 271 7.6 101700 65
2005-04-06 07:15:42 51°13.884 2°55.586 1.8 355 7.6 101700 65
2005-04-06 07:15:47 51°13.893 2°55.579 1.8 330 7.6 101690 65
2005-04-06 07:15:51 51°13.901 2°55.573 2.4 322 7.6 101690 65
2005-04-06 07:15:57 51°13.913 2°55.565 1.7 285 7.6 101700 65
2005-04-06 07:16:01 51°13.922 2°55.559 0.7 315 7.6 101700 65
2005-04-06 07:16:05 51°13.931 2°55.554 1 323 7.6 101700 65
2005-04-06 07:16:11 51°13.943 2°55.546 0.8 318 7.6 101700 65
2005-04-06 07:16:17 51°13.954 2°55.538 0.6 317 7.6 101700 65
2005-04-06 07:16:21 51°13.964 2°55.532 1.4 294 7.6 101700 65
2005-04-06 07:16:27 51°13.975 2°55.524 1.4 305 7.6 101700 66
2005-04-06 07:16:31 51°13.985 2°55.517 1.6 272 7.6 101700 66
2005-04-06 07:16:36 51°13.995 2°55.51 2 285 7.6 101710 66
2005-04-06 07:16:41 51°14.006 2°55.502 1.7 281 7.6 101710 66
2005-04-06 07:16:45 51°14.014 2°55.496 1.6 282 7.7 101700 66
2005-04-06 07:16:51 51°14.027 2°55.487 1.2 279 7.7 101700 66
2005-04-06 07:16:57 51°14.039 2°55.478 1.2 292 7.6 101700 66
2005-04-06 07:17:01 51°14.049 2°55.47 1.8 308 7.6 101700 66
2005-04-06 07:17:07 51°14.061 2°55.462 3 295 7.7 101700 66
2005-04-06 07:17:11 51°14.072 2°55.454 1.6 293 7.7 101700 66
2005-04-06 07:17:17 51°14.084 2°55.445 1.4 305 7.7 101710 66
2005-04-06 07:17:22 51°14.096 2°55.437 2.8 332 7.7 101710 66
2005-04-06 07:17:26 51°14.105 2°55.43 2.6 321 7.7 101700 65
2005-04-06 07:17:31 51°14.118 2°55.421 2.7 328 7.7 101700 65
2005-04-06 07:17:37 51°14.13 2°55.411 3.6 319 7.7 101700 65
2005-04-06 07:17:41 51°14.14 2°55.403 2.2 354 7.7 101700 65
2005-04-06 07:17:46 51°14.151 2°55.393 2.7 350 7.7 101700 65
2005-04-06 07:17:51 51°14.162 2°55.384 3.4 338 7.7 101700 65
2005-04-06 07:17:55 51°14.172 2°55.375 2.9 43 7.7 101700 65
2005-04-06 07:18:01 51°14.186 2°55.362 4.1 228 7.7 101700 65
2005-04-06 07:18:07 51°14.198 2°55.349 4.5 307 7.7 101700 65
2005-04-06 07:18:11 51°14.207 2°55.339 4.9 304 7.7 101700 65
2005-04-06 07:18:16 51°14.219 2°55.325 4.3 305 7.7 101700 65
2005-04-06 07:18:21 51°14.229 2°55.311 4 332 7.7 101700 65
2005-04-06 07:18:26 51°14.238 2°55.298 6 320 7.7 101690 65
2005-04-06 07:18:31 51°14.248 2°55.284 5.9 321 7.7 101690 65
2005-04-06 07:18:37 51°14.259 2°55.266 6 325 7.7 101690 65
2005-04-06 07:18:41 51°14.268 2°55.251 5.6 330 7.7 101690 65
2005-04-06 07:18:45 51°14.274 2°55.24 6.5 334 7.7 101700 65
2005-04-06 07:18:51 51°14.285 2°55.221 6.6 310 7.7 101700 65
2005-04-06 07:18:56 51°14.295 2°55.203 5.5 300 7.7 101700 65
2005-04-06 07:19:02 51°14.306 2°55.183 5.7 312 7.7 101700 65
2005-04-06 07:19:05 51°14.312 2°55.173 7.5 319 7.7 101700 65
2005-04-06 07:19:11 51°14.322 2°55.153 6.2 333 7.7 101700 65
2005-04-06 07:19:17 51°14.333 2°55.13 6.9 330 7.7 101690 65
2005-04-06 07:19:21 51°14.34 2°55.115 4.8 327 7.7 101690 65
2005-04-06 07:19:27 51°14.352 2°55.092 5.4 318 7.7 101690 65
2005-04-06 07:19:31 51°14.361 2°55.073 8.5 229 7.7 101690 65
2005-04-06 07:19:37 51°14.371 2°55.052 8 310 7.7 101690 66
2005-04-06 07:19:41 51°14.379 2°55.032 6.3 310 7.7 101690 66
2005-04-06 07:19:46 51°14.387 2°55.011 6.1 320 7.7 101690 66
2005-04-06 07:19:51 51°14.394 2°54.987 7.2 315 7.7 101690 66
2005-04-06 07:19:57 51°14.401 2°54.96 7.2 330 7.7 101680 65
2005-04-06 07:20:01 51°14.406 2°54.939 7.4 326 7.7 101680 65
2005-04-06 07:20:07 51°14.412 2°54.911 8.5 316 7.7 101680 65
2005-04-06 07:20:12 51°14.416 2°54.881 8.3 322 7.7 101680 65
2005-04-06 07:20:15 51°14.419 2°54.866 9.9 315 7.7 101680 65
2005-04-06 07:20:22 51°14.425 2°54.835 9.8 235 7.7 101680 65
2005-04-06 07:20:26 51°14.429 2°54.815 9.9 313 7.7 101680 65
2005-04-06 07:20:32 51°14.433 2°54.792 9.2 314 7.7 101680 65
2005-04-06 07:20:37 51°14.436 2°54.772 10.3 306 7.7 101680 65
2005-04-06 07:20:41 51°14.439 2°54.755 10.3 304 7.7 101680 65
2005-04-06 07:20:46 51°14.442 2°54.738 9.3 292 7.7 101670 65
2005-04-06 07:20:51 51°14.443 2°54.723 8.1 301 7.7 101670 65
2005-04-06 07:20:57 51°14.445 2°54.704 8.4 308 7.7 101680 66
2005-04-06 07:21:01 51°14.447 2°54.692 9.4 302 7.7 101680 66
2005-04-06 07:21:06 51°14.449 2°54.677 10.6 298 7.7 101670 65
2005-04-06 07:21:11 51°14.45 2°54.664 11 295 7.7 101670 65
2005-04-06 07:21:17 51°14.452 2°54.649 9.3 297 7.7 101680 66
2005-04-06 07:21:22 51°14.453 2°54.637 10.7 292 7.7 101680 66
2005-04-06 07:21:26 51°14.454 2°54.628 9.4 294 7.7 101680 66
2005-04-06 07:21:31 51°14.456 2°54.615 10.3 295 7.7 101680 66
2005-04-06 07:21:37 51°14.457 2°54.604 10.6 288 7.7 101670 65
2005-04-06 07:21:41 51°14.457 2°54.597 9 290 7.7 101670 65
2005-04-06 07:21:47 51°14.458 2°54.585 8.7 296 7.7 101680 65
2005-04-06 07:21:52 51°14.459 2°54.576 9.1 285 7.7 101680 65
2005-04-06 07:21:57 51°14.46 2°54.568 8.4 293 7.7 101670 65
2005-04-06 07:22:01 51°14.46 2°54.56 7.8 297 7.7 101670 65
2005-04-06 07:22:07 51°14.461 2°54.552 8.2 300 7.7 101670 66
2005-04-06 07:22:12 51°14.461 2°54.544 8.1 299 7.7 101670 66
2005-04-06 07:22:16 51°14.461 2°54.537 8.3 303 7.7 101670 66
2005-04-06 07:22:21 51°14.461 2°54.53 8.4 296 7.7 101670 66
2005-04-06 07:22:27 51°14.462 2°54.522 8.7 295 7.7 101680 66
2005-04-06 07:22:31 51°14.462 2°54.516 8 301 7.7 101680 66
2005-04-06 07:22:37 51°14.462 2°54.508 7.6 296 7.7 101680 67
2005-04-06 07:22:41 51°14.462 2°54.503 8.3 291 7.7 101680 67
2005-04-06 07:22:46 51°14.462 2°54.496 7.8 298 7.7 101680 66
2005-04-06 07:22:52 51°14.462 2°54.489 8.6 295 7.7 101680 66
2005-04-06 07:22:57 51°14.462 2°54.483 9.6 290 7.7 101680 66
2005-04-06 07:23:01 51°14.463 2°54.478 8.8 296 7.7 101680 66
2005-04-06 07:23:06 51°14.463 2°54.472 8.8 296 7.7 101680 67
2005-04-06 07:23:11 51°14.463 2°54.467 8.3 290 7.7 101680 67
2005-04-06 07:23:17 51°14.463 2°54.461 7.8 291 7.7 101670 68
2005-04-06 07:23:22 51°14.463 2°54.455 8.3 287 7.7 101670 68
2005-04-06 07:23:25 51°14.463 2°54.451 7.4 289 7.7 101680 68
2005-04-06 07:23:30 51°14.463 2°54.447 7.6 295 7.7 101680 68
2005-04-06 07:23:37 51°14.463 2°54.44 9.3 294 7.7 101670 68
2005-04-06 07:23:41 51°14.463 2°54.436 7.8 296 7.7 101670 68
2005-04-06 07:23:46 51°14.463 2°54.432 6.6 291 7.7 101680 67
2005-04-06 07:23:51 51°14.463 2°54.427 7.1 289 7.7 101680 67
2005-04-06 07:23:56 51°14.464 2°54.423 8 280 7.7 101670 68
2005-04-06 07:24:02 51°14.464 2°54.417 9.9 283 7.7 101670 68
2005-04-06 07:24:07 51°14.464 2°54.414 8.7 282 7.7 101670 67
2005-04-06 07:24:11 51°14.464 2°54.41 11.2 291 7.7 101670 67
2005-04-06 07:24:17 51°14.464 2°54.405 10.3 291 7.7 101680 68
2005-04-06 07:24:21 51°14.465 2°54.402 11.6 282 7.7 101680 68
2005-04-06 07:24:27 51°14.465 2°54.398 10.9 283 7.7 101670 68
2005-04-06 07:24:32 51°14.465 2°54.394 9.7 295 7.7 101670 68
2005-04-06 07:24:37 51°14.465 2°54.39 8.4 295 7.7 101670 67
2005-04-06 07:24:41 51°14.466 2°54.387 8 289 7.7 101670 67
2005-04-06 07:24:47 51°14.466 2°54.383 7.5 290 7.7 101670 66
2005-04-06 07:24:51 51°14.466 2°54.38 9.1 279 7.7 101670 66
2005-04-06 07:24:57 51°14.466 2°54.376 8.2 282 7.7 101670 66
2005-04-06 07:25:02 51°14.467 2°54.373 10 275 7.7 101670 66
2005-04-06 07:25:06 51°14.467 2°54.37 9.7 271 7.7 101670 67
2005-04-06 07:25:11 51°14.467 2°54.367 8.5 282 7.7 101670 67
2005-04-06 07:25:16 51°14.467 2°54.363 7.9 287 7.7 101670 67
2005-04-06 07:25:21 51°14.467 2°54.36 8.7 292 7.7 101670 67
2005-04-06 07:25:27 51°14.467 2°54.357 8.8 288 7.7 101670 68
2005-04-06 07:25:31 51°14.468 2°54.355 8.9 280 7.7 101670 68
2005-04-06 07:25:37 51°14.468 2°54.351 8.9 287 7.7 101670 67
2005-04-06 07:25:41 51°14.468 2°54.349 8.1 289 7.7 101670 67
2005-04-06 07:25:47 51°14.468 2°54.346 10.4 280 7.7 101670 67
2005-04-06 07:25:51 51°14.468 2°54.343 8.7 286 7.7 101670 67
2005-04-06 07:25:57 51°14.468 2°54.34 9.2 296 7.7 101670 66
2005-04-06 07:26:02 51°14.468 2°54.338 7.9 297 7.7 101670 66
2005-04-06 07:26:06 51°14.469 2°54.336 8.6 298 7.7 101670 67
2005-04-06 07:26:12 51°14.469 2°54.333 8.2 288 7.7 101670 67
2005-04-06 07:26:17 51°14.469 2°54.33 8.6 292 7.7 101670 68
2005-04-06 07:26:21 51°14.469 2°54.328 9.6 291 7.7 101670 68
2005-04-06 07:26:27 51°14.469 2°54.326 9.4 294 7.7 101670 68
2005-04-06 07:26:31 51°14.47 2°54.324 7.9 291 7.7 101670 68
2005-04-06 07:26:36 51°14.47 2°54.322 8.8 288 7.7 101670 69
2005-04-06 07:26:41 51°14.47 2°54.32 7.9 291 7.7 101670 69
2005-04-06 07:26:46 51°14.47 2°54.317 7.9 291 7.7 101670 67
2005-04-06 07:26:51 51°14.47 2°54.315 8.4 292 7.7 101670 67
2005-04-06 07:26:57 51°14.471 2°54.313 9.3 287 7.7 101670 67
2005-04-06 07:27:02 51°14.471 2°54.311 8.7 297 7.7 101670 67
2005-04-06 07:27:07 51°14.471 2°54.309 8.5 291 7.8 101670 67
2005-04-06 07:27:11 51°14.471 2°54.308 9.2 287 7.8 101670 67
2005-04-06 07:27:17 51°14.471 2°54.305 8.8 285 7.7 101670 67
2005-04-06 07:27:21 51°14.472 2°54.304 8.5 284 7.7 101670 67
2005-04-06 07:27:26 51°14.472 2°54.302 7.9 285 7.7 101670 66
2005-04-06 07:27:31 51°14.472 2°54.3 7.5 279 7.7 101670 66
2005-04-06 07:27:37 51°14.472 2°54.298 7.1 286 7.7 101670 66
2005-04-06 07:27:41 51°14.472 2°54.297 7.3 289 7.7 101670 66
2005-04-06 07:27:46 51°14.472 2°54.295 8.4 286 7.8 101670 67
2005-04-06 07:27:51 51°14.473 2°54.293 8.1 296 7.8 101670 67
2005-04-06 07:27:57 51°14.473 2°54.291 10.1 290 7.8 101670 67
2005-04-06 07:28:02 51°14.473 2°54.29 10.2 297 7.8 101670 67
2005-04-06 07:28:06 51°14.473 2°54.289 9.7 292 7.8 101670 68
2005-04-06 07:28:11 51°14.474 2°54.288 9.3 287 7.8 101670 68
2005-04-06 07:28:16 51°14.474 2°54.286 10.2 284 7.8 101670 67
2005-04-06 07:28:22 51°14.474 2°54.285 9.3 298 7.8 101670 67
2005-04-06 07:28:27 51°14.474 2°54.283 9 295 7.8 101670 67
2005-04-06 07:28:31 51°14.475 2°54.282 8.2 284 7.8 101670 67
2005-04-06 07:28:36 51°14.475 2°54.281 8.4 295 7.8 101660 66
2005-04-06 07:28:41 51°14.475 2°54.279 8.1 293 7.8 101660 66
2005-04-06 07:28:47 51°14.476 2°54.278 7 288 7.8 101660 66
2005-04-06 07:28:51 51°14.476 2°54.276 6.7 289 7.8 101660 66
2005-04-06 07:28:57 51°14.476 2°54.275 9.1 284 7.8 101670 66
2005-04-06 07:29:02 51°14.477 2°54.274 10.5 287 7.8 101670 66
2005-04-06 07:29:06 51°14.477 2°54.273 10.7 288 7.8 101670 67
2005-04-06 07:29:11 51°14.478 2°54.272 11.6 287 7.8 101670 67
2005-04-06 07:29:16 51°14.478 2°54.271 10.7 285 7.8 101670 67
2005-04-06 07:29:21 51°14.479 2°54.27 11.3 278 7.8 101670 67
2005-04-06 07:29:26 51°14.479 2°54.269 9.6 280 7.8 101660 66
2005-04-06 07:29:32 51°14.48 2°54.268 8.9 290 7.8 101660 66
2005-04-06 07:29:37 51°14.48 2°54.267 9.2 288 7.7 101660 66
2005-04-06 07:29:41 51°14.481 2°54.266 10.3 288 7.7 101660 66
2005-04-06 07:29:47 51°14.481 2°54.265 9.7 282 7.8 101660 66
2005-04-06 07:29:51 51°14.482 2°54.264 8.7 288 7.8 101660 66
2005-04-06 07:29:57 51°14.482 2°54.263 8.9 289 7.8 101660 66
2005-04-06 07:30:01 51°14.483 2°54.262 7.9 284 7.8 101660 66
2005-04-06 07:30:06 51°14.483 2°54.259 9.7 291 7.8 101670 67
2005-04-06 07:30:12 51°14.484 2°54.255 8.8 288 7.8 101670 67
2005-04-06 07:30:17 51°14.484 2°54.249 9.2 298 7.8 101660 66
2005-04-06 07:30:21 51°14.485 2°54.243 10.3 291 7.8 101660 66
2005-04-06 07:30:27 51°14.485 2°54.233 10.8 291 7.8 101670 66
2005-04-06 07:30:31 51°14.485 2°54.225 9.4 293 7.8 101670 66
2005-04-06 07:30:37 51°14.485 2°54.213 9.3 299 7.8 101660 67
2005-04-06 07:30:41 51°14.485 2°54.205 10.5 297 7.8 101660 67
2005-04-06 07:30:47 51°14.485 2°54.192 10.5 308 7.8 101660 67
2005-04-06 07:30:51 51°14.484 2°54.184 9.8 304 7.8 101660 67
2005-04-06 07:30:57 51°14.483 2°54.171 10.4 304 7.8 101660 66
2005-04-06 07:31:01 51°14.483 2°54.163 11.6 299 7.8 101660 66
2005-04-06 07:31:07 51°14.482 2°54.15 11.1 303 7.8 101660 66
2005-04-06 07:31:12 51°14.481 2°54.14 12.2 306 7.8 101660 66
2005-04-06 07:31:15 51°14.481 2°54.133 12.9 302 7.8 101660 66
2005-04-06 07:31:21 51°14.481 2°54.12 12.1 301 7.8 101660 66
2005-04-06 07:31:27 51°14.481 2°54.106 10.7 300 7.8 101650 65
2005-04-06 07:31:31 51°14.481 2°54.096 11.2 299 7.8 101650 65
2005-04-06 07:31:36 51°14.482 2°54.084 12.1 293 7.9 101660 66
2005-04-06 07:31:41 51°14.483 2°54.071 12.5 280 7.9 101660 66
2005-04-06 07:31:46 51°14.484 2°54.059 12 284 7.9 101650 66
2005-04-06 07:31:51 51°14.486 2°54.048 10.8 290 7.9 101650 66
2005-04-06 07:31:57 51°14.487 2°54.033 11.3 285 7.9 101650 67
2005-04-06 07:32:01 51°14.488 2°54.021 11 292 7.9 101650 67
2005-04-06 07:32:07 51°14.489 2°54.008 9.7 302 7.9 101650 66
2005-04-06 07:32:11 51°14.489 2°53.998 9.8 297 7.9 101650 66
2005-04-06 07:32:17 51°14.49 2°53.984 9.8 295 7.9 101650 66
2005-04-06 07:32:22 51°14.49 2°53.972 10.3 303 7.9 101650 66
2005-04-06 07:32:27 51°14.49 2°53.96 11.5 307 7.9 101650 66
2005-04-06 07:32:31 51°14.489 2°53.949 13.1 43 7.9 101650 66
2005-04-06 07:32:37 51°14.486 2°53.933 11.7 318 7.9 101650 67
2005-04-06 07:32:41 51°14.484 2°53.922 12.9 325 7.9 101650 67
2005-04-06 07:32:45 51°14.481 2°53.911 12.2 330 7.9 101660 67
2005-04-06 07:32:51 51°14.474 2°53.894 13.4 335 7.9 101660 67
2005-04-06 07:32:57 51°14.467 2°53.879 13.6 337 7.9 101650 65
2005-04-06 07:33:02 51°14.46 2°53.865 13.9 333 7.9 101650 65
2005-04-06 07:33:07 51°14.452 2°53.85 13.8 331 7.9 101650 66
2005-04-06 07:33:11 51°14.446 2°53.838 13.4 342 7.9 101650 66
2005-04-06 07:33:17 51°14.436 2°53.82 13 339 7.9 101650 66
2005-04-06 07:33:22 51°14.427 2°53.802 13.2 341 7.9 101650 66
2005-04-06 07:33:27 51°14.419 2°53.786 13.7 342 7.9 101640 65
2005-04-06 07:33:31 51°14.411 2°53.77 14 338 7.9 101640 65
2005-04-06 07:33:37 51°14.4 2°53.75 13.3 337 7.9 101640 66
2005-04-06 07:33:41 51°14.392 2°53.733 16 341 7.9 101640 66
2005-04-06 07:33:47 51°14.381 2°53.713 16.3 343 7.9 101640 67
2005-04-06 07:33:51 51°14.373 2°53.697 16.3 341 7.9 101640 67
2005-04-06 07:33:57 51°14.361 2°53.674 15.7 341 7.9 101640 67
2005-04-06 07:34:01 51°14.352 2°53.656 14.9 343 7.9 101640 67
2005-04-06 07:34:07 51°14.341 2°53.634 14.2 340 7.9 101650 66
2005-04-06 07:34:11 51°14.333 2°53.617 13.9 341 7.9 101650 66
2005-04-06 07:34:17 51°14.321 2°53.593 15.5 341 7.9 101640 65
2005-04-06 07:34:21 51°14.313 2°53.577 14 337 7.9 101640 65
2005-04-06 07:34:26 51°14.301 2°53.554 15.6 344 7.9 101650 66
2005-04-06 07:34:31 51°14.292 2°53.535 14.9 344 7.9 101650 66
2005-04-06 07:34:36 51°14.28 2°53.513 15.5 336 7.9 101650 67
2005-04-06 07:34:42 51°14.27 2°53.489 13.3 337 7.9 101650 67
2005-04-06 07:34:46 51°14.262 2°53.472 15 333 7.9 101650 66
2005-04-06 07:34:51 51°14.251 2°53.448 15.5 325 7.9 101650 66
2005-04-06 07:34:55 51°14.244 2°53.43 16 330 7.9 101650 66
2005-04-06 07:35:02 51°14.231 2°53.399 13.9 334 7.9 101650 66
2005-04-06 07:35:05 51°14.226 2°53.386 14.5 337 7.9 101650 66
2005-04-06 07:35:12 51°14.214 2°53.356 12.6 337 7.9 101650 66
2005-04-06 07:35:16 51°14.206 2°53.336 14.7 336 7.9 101640 65
2005-04-06 07:35:21 51°14.198 2°53.316 14 333 7.9 101640 65
2005-04-06 07:35:27 51°14.187 2°53.288 14.9 332 7.9 101630 67
2005-04-06 07:35:31 51°14.179 2°53.267 15.2 333 7.9 101630 67
2005-04-06 07:35:37 51°14.169 2°53.243 14.8 337 7.9 101650 67
2005-04-06 07:35:41 51°14.161 2°53.224 15.4 332 7.9 101650 67
2005-04-06 07:35:47 51°14.151 2°53.197 15.7 336 7.9 101650 66
2005-04-06 07:35:52 51°14.142 2°53.174 16.1 330 7.9 101650 66
2005-04-06 07:35:57 51°14.133 2°53.152 16 333 7.9 101640 67
2005-04-06 07:36:02 51°14.123 2°53.129 13.6 340 7.9 101640 67
2005-04-06 07:36:07 51°14.115 2°53.106 13.3 335 7.9 101650 66
2005-04-06 07:36:11 51°14.106 2°53.085 13.6 338 7.9 101650 66
2005-04-06 07:36:16 51°14.097 2°53.063 13.1 339 7.9 101650 66
2005-04-06 07:36:21 51°14.088 2°53.04 14.1 337 7.9 101650 66
2005-04-06 07:36:27 51°14.078 2°53.015 13 333 7.9 101640 66
2005-04-06 07:36:31 51°14.071 2°52.997 14.8 336 7.9 101640 66
2005-04-06 07:36:37 51°14.06 2°52.97 14 334 7.9 101650 66
2005-04-06 07:36:41 51°14.052 2°52.949 16.4 333 7.9 101650 66
2005-04-06 07:36:46 51°14.043 2°52.926 15.8 334 7.9 101650 68
2005-04-06 07:36:51 51°14.035 2°52.906 15.6 334 7.9 101650 68
2005-04-06 07:36:57 51°14.024 2°52.879 15 338 7.9 101640 66
2005-04-06 07:37:02 51°14.015 2°52.856 14 337 7.9 101640 66
2005-04-06 07:37:06 51°14.007 2°52.836 14 333 7.9 101640 66
2005-04-06 07:37:12 51°13.996 2°52.808 13 336 7.9 101640 66
2005-04-06 07:37:15 51°13.991 2°52.797 15 337 7.9 101650 65
2005-04-06 07:37:21 51°13.98 2°52.767 14.6 332 7.9 101650 65
2005-04-06 07:37:26 51°13.971 2°52.743 14.6 334 7.9 101640 66
2005-04-06 07:37:32 51°13.962 2°52.717 14.1 332 7.9 101640 66
2005-04-06 07:37:36 51°13.954 2°52.696 15.3 339 7.9 101660 67
2005-04-06 07:37:41 51°13.945 2°52.673 14 333 7.9 101660 67
2005-04-06 07:37:46 51°13.937 2°52.652 13.9 337 7.9 101640 66
2005-04-06 07:37:50 51°13.929 2°52.631 13.1 338 7.9 101640 66
2005-04-06 07:37:55 51°13.922 2°52.61 14.5 335 7.9 101640 66
2005-04-06 07:38:02 51°13.91 2°52.577 13.8 332 7.9 101640 66
2005-04-06 07:38:07 51°13.901 2°52.554 13.7 335 7.9 101650 66
2005-04-06 07:38:11 51°13.894 2°52.535 13.1 334 7.9 101650 66
2005-04-06 07:38:14 51°13.888 2°52.519 12.1 334 7.9 101650 66
2005-04-06 07:38:22 51°13.874 2°52.481 13.3 337 7.9 101650 66
2005-04-06 07:38:26 51°13.868 2°52.462 12.8 336 7.9 101650 67
2005-04-06 07:38:32 51°13.858 2°52.437 12.9 340 7.9 101650 67
2005-04-06 07:38:37 51°13.849 2°52.413 13.2 339 7.9 101650 68
2005-04-06 07:38:42 51°13.841 2°52.39 12.1 335 7.9 101650 68
2005-04-06 07:38:47 51°13.832 2°52.366 13 337 7.8 101650 68
2005-04-06 07:38:51 51°13.825 2°52.347 13.2 334 7.8 101650 68
2005-04-06 07:38:57 51°13.815 2°52.319 13.4 335 7.8 101650 68
2005-04-06 07:39:01 51°13.808 2°52.298 13.8 336 7.8 101650 68
2005-04-06 07:39:06 51°13.8 2°52.274 12.8 338 7.8 101650 68
2005-04-06 07:39:11 51°13.791 2°52.249 13.7 338 7.8 101650 68
2005-04-06 07:39:17 51°13.781 2°52.223 14.9 336 7.8 101650 68
2005-04-06 07:39:22 51°13.772 2°52.198 13.6 336 7.8 101650 68
2005-04-06 07:39:26 51°13.764 2°52.178 13.3 331 7.8 101640 68
2005-04-06 07:39:31 51°13.754 2°52.15 12.3 340 7.8 101640 68
2005-04-06 07:39:37 51°13.743 2°52.123 12.7 336 7.8 101650 69
2005-04-06 07:39:41 51°13.735 2°52.1 14.4 336 7.8 101650 69
2005-04-06 07:39:46 51°13.725 2°52.074 14 337 7.8 101640 68
2005-04-06 07:39:51 51°13.717 2°52.05 13.6 337 7.8 101640 68
2005-04-06 07:39:57 51°13.704 2°52.017 13.6 338 7.8 101650 68
2005-04-06 07:40:01 51°13.697 2°51.996 12.6 335 7.8 101650 68
2005-04-06 07:40:07 51°13.686 2°51.967 13 342 7.8 101640 68
2005-04-06 07:40:11 51°13.678 2°51.946 13 335 7.8 101640 68
2005-04-06 07:40:16 51°13.668 2°51.917 12.8 334 7.8 101650 68
2005-04-06 07:40:22 51°13.657 2°51.888 13.2 335 7.8 101650 68
2005-04-06 07:40:27 51°13.647 2°51.862 13.8 339 7.8 101650 68
2005-04-06 07:40:31 51°13.639 2°51.841 13.8 339 7.8 101650 68
2005-04-06 07:40:37 51°13.628 2°51.81 13 343 7.8 101650 68
2005-04-06 07:40:41 51°13.619 2°51.786 13.4 341 7.8 101650 68
2005-04-06 07:40:46 51°13.61 2°51.762 13.3 339 7.8 101650 69
2005-04-06 07:40:51 51°13.599 2°51.732 13.6 336 7.8 101650 69
2005-04-06 07:40:57 51°13.588 2°51.704 14.5 339 7.8 101650 69
2005-04-06 07:41:01 51°13.58 2°51.68 13.5 341 7.8 101650 69
2005-04-06 07:41:07 51°13.569 2°51.651 15.4 338 7.8 101640 69
2005-04-06 07:41:11 51°13.561 2°51.63 13.5 336 7.8 101640 69
2005-04-06 07:41:17 51°13.55 2°51.598 13.4 337 7.8 101640 69
2005-04-06 07:41:21 51°13.541 2°51.574 14.1 334 7.8 101640 69
2005-04-06 07:41:27 51°13.53 2°51.545 13.3 336 7.8 101640 68
2005-04-06 07:41:31 51°13.523 2°51.524 13 335 7.8 101640 68
2005-04-06 07:41:37 51°13.51 2°51.49 13.9 338 7.8 101630 69
2005-04-06 07:41:41 51°13.502 2°51.468 14.4 333 7.8 101630 69
2005-04-06 07:41:46 51°13.493 2°51.442 13.4 336 7.8 101640 69
2005-04-06 07:41:51 51°13.484 2°51.418 13.4 335 7.8 101640 69
2005-04-06 07:41:57 51°13.473 2°51.386 14.4 338 7.8 101640 70
2005-04-06 07:42:01 51°13.465 2°51.365 13.9 340 7.8 101640 70
2005-04-06 07:42:07 51°13.453 2°51.333 12.8 337 7.8 101640 69
2005-04-06 07:42:11 51°13.444 2°51.309 14.2 338 7.8 101640 69
2005-04-06 07:42:17 51°13.434 2°51.281 13.2 338 7.8 101630 69
2005-04-06 07:42:21 51°13.425 2°51.257 14.7 339 7.8 101630 69
2005-04-06 07:42:27 51°13.414 2°51.229 15.4 336 7.8 101640 70
2005-04-06 07:42:31 51°13.407 2°51.207 15.9 337 7.8 101640 70
2005-04-06 07:42:35 51°13.399 2°51.186 15.2 342 7.8 101630 69
2005-04-06 07:42:41 51°13.388 2°51.155 13.5 338 7.8 101630 69
2005-04-06 07:42:46 51°13.377 2°51.126 14 338 7.8 101630 69
2005-04-06 07:42:51 51°13.368 2°51.103 13.9 337 7.8 101630 69
2005-04-06 07:42:57 51°13.357 2°51.071 14 342 7.9 101630 68
2005-04-06 07:43:02 51°13.347 2°51.045 14.8 336 7.9 101630 68
2005-04-06 07:43:06 51°13.339 2°51.021 15.4 337 7.9 101630 69
2005-04-06 07:43:11 51°13.329 2°50.995 15 334 7.9 101630 69
2005-04-06 07:43:17 51°13.319 2°50.966 14.4 337 7.9 101630 70
2005-04-06 07:43:21 51°13.31 2°50.943 15.3 334 7.9 101630 70
2005-04-06 07:43:27 51°13.3 2°50.914 15.6 341 7.9 101630 69
2005-04-06 07:43:32 51°13.29 2°50.888 14.7 338 7.9 101630 69
2005-04-06 07:43:37 51°13.279 2°50.86 14.4 337 7.9 101620 68
2005-04-06 07:43:42 51°13.271 2°50.836 13.3 337 7.9 101620 68
2005-04-06 07:43:46 51°13.262 2°50.813 15.6 339 7.9 101630 68
2005-04-06 07:43:51 51°13.253 2°50.79 14.9 335 7.9 101630 68
2005-04-06 07:43:56 51°13.243 2°50.761 14.9 335 7.9 101630 68
2005-04-06 07:44:02 51°13.231 2°50.73 14.1 337 7.9 101630 68
2005-04-06 07:44:07 51°13.223 2°50.706 14.5 338 7.9 101620 69
2005-04-06 07:44:12 51°13.213 2°50.68 14 338 7.9 101620 69
2005-04-06 07:44:16 51°13.205 2°50.657 13.9 336 7.9 101620 68
2005-04-06 07:44:21 51°13.195 2°50.631 14.3 338 7.9 101620 68
2005-04-06 07:44:27 51°13.184 2°50.602 15.8 336 7.9 101620 69
2005-04-06 07:44:31 51°13.176 2°50.578 15.4 338 7.9 101620 69
2005-04-06 07:44:37 51°13.165 2°50.55 15.7 338 7.9 101630 70
2005-04-06 07:44:41 51°13.158 2°50.529 15.2 339 7.9 101630 70
2005-04-06 07:44:45 51°13.15 2°50.508 14.6 340 7.9 101620 70
2005-04-06 07:44:51 51°13.139 2°50.477 15 337 7.9 101620 70
2005-04-06 07:44:57 51°13.127 2°50.446 13.4 338 7.9 101620 69
2005-04-06 07:45:02 51°13.117 2°50.42 14.4 339 7.9 101620 69
2005-04-06 07:45:06 51°13.109 2°50.396 15.3 339 7.9 101620 69
2005-04-06 07:45:11 51°13.099 2°50.369 15.1 333 7.9 101620 69
2005-04-06 07:45:17 51°13.089 2°50.341 13.9 334 7.9 101620 69
2005-04-06 07:45:22 51°13.079 2°50.315 14.2 336 7.9 101620 69
2005-04-06 07:45:27 51°13.07 2°50.288 12.9 334 7.9 101620 69
2005-04-06 07:45:30 51°13.064 2°50.27 16.3 335 7.9 101620 69
2005-04-06 07:45:36 51°13.052 2°50.238 16.1 339 7.9 101620 69
2005-04-06 07:45:41 51°13.043 2°50.212 15.3 333 7.9 101620 69
2005-04-06 07:45:47 51°13.032 2°50.183 14.5 340 7.9 101610 69
2005-04-06 07:45:52 51°13.022 2°50.157 14.7 332 7.9 101610 69
2005-04-06 07:45:57 51°13.013 2°50.132 14.8 338 7.9 101620 68
2005-04-06 07:46:02 51°13.002 2°50.105 15.8 334 7.9 101620 68
2005-04-06 07:46:06 51°12.994 2°50.085 14.2 335 7.9 101620 69
2005-04-06 07:46:12 51°12.982 2°50.054 16.1 334 7.9 101620 69
2005-04-06 07:46:17 51°12.972 2°50.029 14.7 338 7.9 101620 69
2005-04-06 07:46:21 51°12.964 2°50.009 14.1 337 7.9 101620 69
2005-04-06 07:46:27 51°12.952 2°49.977 15 337 7.9 101620 69
2005-04-06 07:46:32 51°12.942 2°49.952 15.5 333 7.9 101620 69
2005-04-06 07:46:36 51°12.933 2°49.929 14.9 337 7.9 101610 69
2005-04-06 07:46:42 51°12.921 2°49.898 14.8 335 7.9 101610 69
2005-04-06 07:46:45 51°12.915 2°49.882 14 337 8 101620 70
2005-04-06 07:46:51 51°12.904 2°49.854 14 337 8 101620 70
2005-04-06 07:46:55 51°12.896 2°49.834 15.5 336 7.9 101620 69
2005-04-06 07:47:01 51°12.883 2°49.803 17.9 339 7.9 101620 69
2005-04-06 07:47:07 51°12.871 2°49.772 17.2 339 7.9 101610 69
2005-04-06 07:47:11 51°12.863 2°49.752 15.4 336 7.9 101610 69
2005-04-06 07:47:17 51°12.852 2°49.721 14.7 335 7.9 101620 69
2005-04-06 07:47:21 51°12.842 2°49.698 14.8 331 7.9 101620 69
2005-04-06 07:47:26 51°12.832 2°49.672 13.6 338 7.9 101620 67
2005-04-06 07:47:31 51°12.822 2°49.646 14.8 336 7.9 101620 67
2005-04-06 07:47:37 51°12.811 2°49.618 16 334 7.9 101610 68
2005-04-06 07:47:41 51°12.802 2°49.595 15.1 336 7.9 101610 68
2005-04-06 07:47:46 51°12.792 2°49.569 16 334 8 101620 67
2005-04-06 07:47:51 51°12.782 2°49.543 15.8 335 8 101620 67
2005-04-06 07:47:57 51°12.771 2°49.515 14.3 334 8 101620 67
2005-04-06 07:48:01 51°12.762 2°49.492 15.2 340 8 101620 67
2005-04-06 07:48:06 51°12.752 2°49.467 16.4 335 8 101620 67
2005-04-06 07:48:12 51°12.741 2°49.438 14.3 339 8 101620 67
2005-04-06 07:48:16 51°12.732 2°49.415 14.6 336 8 101630 68
2005-04-06 07:48:21 51°12.722 2°49.389 14.5 341 8 101630 68
2005-04-06 07:48:27 51°12.711 2°49.361 14.7 341 8 101620 67
2005-04-06 07:48:32 51°12.701 2°49.335 15.9 340 8 101620 67
2005-04-06 07:48:37 51°12.691 2°49.31 15.3 336 8 101620 68
2005-04-06 07:48:41 51°12.682 2°49.286 14.9 338 8 101620 68
2005-04-06 07:48:45 51°12.674 2°49.266 14.8 341 8 101620 68
2005-04-06 07:48:50 51°12.664 2°49.24 14.5 332 8 101620 68
2005-04-06 07:48:57 51°12.652 2°49.207 14.9 340 8 101630 68
2005-04-06 07:49:01 51°12.643 2°49.184 15.4 338 8 101630 68
2005-04-06 07:49:07 51°12.632 2°49.155 15.9 336 8 101620 68
2005-04-06 07:49:11 51°12.623 2°49.132 15.3 334 8 101620 68
2005-04-06 07:49:17 51°12.612 2°49.104 15.5 337 8 101630 69
2005-04-06 07:49:22 51°12.602 2°49.078 14.8 336 8 101630 69
2005-04-06 07:49:25 51°12.595 2°49.06 16 342 8 101620 67
2005-04-06 07:49:31 51°12.583 2°49.029 13 337 8 101620 67
2005-04-06 07:49:36 51°12.573 2°49.004 13.8 337 8 101610 67
2005-04-06 07:49:41 51°12.564 2°48.981 13.5 337 8 101610 67
2005-04-06 07:49:45 51°12.556 2°48.957 15.1 342 8 101610 67
2005-04-06 07:49:51 51°12.543 2°48.926 13.7 339 8 101610 67
2005-04-06 07:49:57 51°12.533 2°48.899 13.5 336 8 101620 67
2005-04-06 07:50:01 51°12.525 2°48.878 12.3 335 8 101620 67
2005-04-06 07:50:07 51°12.513 2°48.847 13.5 341 8 101620 67
2005-04-06 07:50:11 51°12.505 2°48.827 14 346 8 101620 67
2005-04-06 07:50:17 51°12.493 2°48.796 14.9 342 8 101630 68
2005-04-06 07:50:22 51°12.483 2°48.77 14.4 342 8 101630 68
2005-04-06 07:50:27 51°12.473 2°48.745 14.3 337 8.1 101630 69
2005-04-06 07:50:31 51°12.465 2°48.724 14.4 335 8.1 101630 69
2005-04-06 07:50:37 51°12.453 2°48.694 13.6 341 8.1 101630 69
2005-04-06 07:50:41 51°12.444 2°48.671 13.3 332 8.1 101630 69
2005-04-06 07:50:46 51°12.434 2°48.645 14.1 340 8 101620 69
2005-04-06 07:50:51 51°12.425 2°48.622 13.9 343 8 101620 69
2005-04-06 07:50:57 51°12.412 2°48.589 13.8 338 8.1 101620 69
2005-04-06 07:51:01 51°12.404 2°48.568 14.5 335 8.1 101620 69
2005-04-06 07:51:06 51°12.394 2°48.543 14 335 8 101620 68
2005-04-06 07:51:11 51°12.385 2°48.52 14.4 341 8 101620 68
2005-04-06 07:51:16 51°12.375 2°48.492 13.2 339 8 101620 68
2005-04-06 07:51:21 51°12.364 2°48.466 14.7 343 8 101620 68
2005-04-06 07:51:27 51°12.354 2°48.438 13.6 337 8 101610 67
2005-04-06 07:51:31 51°12.345 2°48.418 13.1 340 8 101610 67
2005-04-06 07:51:37 51°12.333 2°48.387 13.7 342 8.1 101620 68
2005-04-06 07:51:41 51°12.324 2°48.364 15.3 332 8.1 101620 68
2005-04-06 07:51:46 51°12.315 2°48.339 14.1 331 8 101610 67
2005-04-06 07:51:51 51°12.306 2°48.316 12.8 335 8 101610 67
2005-04-06 07:51:57 51°12.294 2°48.285 12.8 337 8.1 101620 67
2005-04-06 07:52:02 51°12.284 2°48.26 12.5 337 8.1 101620 67
2005-04-06 07:52:07 51°12.274 2°48.234 12 336 8.1 101620 67
2005-04-06 07:52:11 51°12.266 2°48.214 12.5 342 8.1 101620 67
2005-04-06 07:52:15 51°12.258 2°48.193 13.3 337 8.1 101620 68
2005-04-06 07:52:22 51°12.244 2°48.157 13.2 336 8.1 101620 68
2005-04-06 07:52:27 51°12.234 2°48.132 15.3 341 8.1 101610 69
2005-04-06 07:52:30 51°12.227 2°48.114 13.1 335 8.1 101610 69
2005-04-06 07:52:37 51°12.214 2°48.081 14.8 338 8.1 101620 69
2005-04-06 07:52:41 51°12.205 2°48.058 13.9 341 8.1 101620 69
2005-04-06 07:52:47 51°12.194 2°48.03 13.8 339 8.1 101620 69
2005-04-06 07:52:52 51°12.183 2°48.002 14.8 337 8.1 101620 69
2005-04-06 07:52:57 51°12.174 2°47.979 14.5 335 8.1 101610 68
2005-04-06 07:53:01 51°12.165 2°47.956 13.7 332 8.1 101610 68
2005-04-06 07:53:06 51°12.155 2°47.931 14.1 335 8.1 101610 68
2005-04-06 07:53:11 51°12.146 2°47.908 13.9 340 8.1 101610 68
2005-04-06 07:53:17 51°12.135 2°47.877 13.3 336 8.1 101620 68
2005-04-06 07:53:21 51°12.126 2°47.854 14.1 343 8.1 101620 68
2005-04-06 07:53:27 51°12.115 2°47.827 14.1 339 8.1 101610 68
2005-04-06 07:53:31 51°12.105 2°47.803 13.9 343 8.1 101610 68
2005-04-06 07:53:36 51°12.096 2°47.779 14.8 341 8.1 101610 69
2005-04-06 07:53:41 51°12.086 2°47.753 15.6 337 8.1 101610 69
2005-04-06 07:53:47 51°12.075 2°47.726 15.3 341 8.1 101620 68
2005-04-06 07:53:51 51°12.067 2°47.705 15.6 344 8.1 101620 68
2005-04-06 07:53:56 51°12.056 2°47.678 15.8 345 8.1 101610 68
2005-04-06 07:54:01 51°12.046 2°47.652 15.4 341 8.1 101610 68
2005-04-06 07:54:06 51°12.036 2°47.627 12.8 330 8.1 101620 66
2005-04-06 07:54:11 51°12.027 2°47.604 13.5 334 8.1 101620 66
2005-04-06 07:54:17 51°12.015 2°47.574 13.5 335 8.2 101610 66
2005-04-06 07:54:22 51°12.005 2°47.549 13.6 337 8.2 101610 66
2005-04-06 07:54:26 51°11.997 2°47.529 14.3 341 8.2 101600 68
2005-04-06 07:54:31 51°11.986 2°47.501 12.6 338 8.2 101600 68
2005-04-06 07:54:37 51°11.975 2°47.473 14.3 340 8.3 101610 68
2005-04-06 07:54:41 51°11.967 2°47.453 15.7 338 8.3 101610 68
2005-04-06 07:54:47 51°11.955 2°47.423 16.4 336 8.2 101610 68
2005-04-06 07:54:50 51°11.949 2°47.405 14.4 337 8.2 101610 68
2005-04-06 07:54:57 51°11.936 2°47.373 14.7 341 8.2 101610 68
2005-04-06 07:55:02 51°11.926 2°47.347 14.8 336 8.2 101610 68
2005-04-06 07:55:07 51°11.916 2°47.322 14.7 337 8.2 101610 67
2005-04-06 07:55:12 51°11.906 2°47.297 15.5 339 8.2 101610 67
2005-04-06 07:55:17 51°11.896 2°47.272 16.4 333 8.3 101610 67
2005-04-06 07:55:21 51°11.887 2°47.25 17.7 336 8.3 101610 67
2005-04-06 07:55:26 51°11.878 2°47.224 18 340 8.3 101600 68
2005-04-06 07:55:31 51°11.869 2°47.202 14 346 8.3 101600 68
2005-04-06 07:55:37 51°11.857 2°47.172 14.5 342 8.3 101600 67
2005-04-06 07:55:42 51°11.847 2°47.147 14.8 344 8.3 101600 67
2005-04-06 07:55:46 51°11.838 2°47.125 14.7 339 8.3 101600 65
2005-04-06 07:55:51 51°11.829 2°47.103 15.3 344 8.3 101600 65
2005-04-06 07:55:56 51°11.818 2°47.076 17.5 340 8.3 101600 66
2005-04-06 07:56:01 51°11.808 2°47.051 16.1 340 8.3 101600 66
2005-04-06 07:56:07 51°11.797 2°47.023 17.3 343 8.3 101600 65
2005-04-06 07:56:12 51°11.787 2°46.995 15.4 337 8.3 101600 65
2005-04-06 07:56:17 51°11.779 2°46.972 16.5 336 8.4 101600 66
2005-04-06 07:56:21 51°11.771 2°46.948 14.7 337 8.4 101600 66
2005-04-06 07:56:27 51°11.762 2°46.92 14.4 331 8.4 101600 66
2005-04-06 07:56:31 51°11.754 2°46.895 14.6 336 8.4 101600 66
2005-04-06 07:56:36 51°11.747 2°46.872 14.3 337 8.4 101600 65
2005-04-06 07:56:41 51°11.738 2°46.843 16.4 335 8.4 101600 65
2005-04-06 07:56:47 51°11.729 2°46.814 16 335 8.4 101590 66
2005-04-06 07:56:51 51°11.722 2°46.79 15.7 335 8.4 101590 66
2005-04-06 07:56:57 51°11.713 2°46.761 16.9 333 8.4 101600 66
2005-04-06 07:57:02 51°11.705 2°46.735 15.3 336 8.4 101600 66
2005-04-06 07:57:07 51°11.697 2°46.709 15.7 338 8.4 101590 65
2005-04-06 07:57:12 51°11.689 2°46.682 18.2 335 8.4 101590 65
2005-04-06 07:57:16 51°11.682 2°46.658 17.7 335 8.4 101590 64
2005-04-06 07:57:21 51°11.674 2°46.632 17.4 331 8.4 101590 64
2005-04-06 07:57:27 51°11.665 2°46.602 18.3 335 8.5 101590 65
2005-04-06 07:57:31 51°11.658 2°46.578 15.7 332 8.5 101590 65
2005-04-06 07:57:37 51°11.65 2°46.55 16.7 334 8.5 101590 64
2005-04-06 07:57:41 51°11.643 2°46.528 15 333 8.5 101590 64
2005-04-06 07:57:45 51°11.636 2°46.505 15.9 333 8.5 101580 64
2005-04-06 07:57:51 51°11.628 2°46.476 15.1 339 8.5 101580 64
2005-04-06 07:57:57 51°11.618 2°46.444 15.3 336 8.5 101570 64
2005-04-06 07:58:01 51°11.611 2°46.42 15.8 336 8.5 101570 64
2005-04-06 07:58:07 51°11.602 2°46.391 15 337 8.5 101590 65
2005-04-06 07:58:11 51°11.596 2°46.37 16.4 338 8.5 101590 65
2005-04-06 07:58:16 51°11.587 2°46.341 16.3 332 8.5 101580 65
2005-04-06 07:58:21 51°11.579 2°46.314 15.9 332 8.5 101580 65
2005-04-06 07:58:26 51°11.571 2°46.288 16.4 333 8.5 101590 66
2005-04-06 07:58:30 51°11.564 2°46.267 17.1 337 8.5 101590 66
2005-04-06 07:58:37 51°11.554 2°46.233 16 339 8.5 101590 65
2005-04-06 07:58:41 51°11.546 2°46.21 16.1 334 8.5 101590 65
2005-04-06 07:58:47 51°11.537 2°46.181 16.1 336 8.5 101590 66
2005-04-06 07:58:52 51°11.529 2°46.155 16 336 8.5 101590 66
2005-04-06 07:58:57 51°11.521 2°46.129 17.6 333 8.5 101590 65
2005-04-06 07:59:01 51°11.513 2°46.105 15.8 335 8.5 101590 65
2005-04-06 07:59:06 51°11.505 2°46.079 16.9 338 8.5 101590 66
2005-04-06 07:59:11 51°11.498 2°46.056 16.2 335 8.5 101590 66
2005-04-06 07:59:16 51°11.489 2°46.027 17.3 331 8.5 101590 66
2005-04-06 07:59:21 51°11.481 2°46.001 15.7 341 8.5 101590 66
2005-04-06 07:59:25 51°11.475 2°45.98 16.7 340 8.5 101570 65
2005-04-06 07:59:31 51°11.465 2°45.948 15.2 334 8.5 101570 65
2005-04-06 07:59:37 51°11.456 2°45.92 16.5 336 8.5 101580 65
2005-04-06 07:59:41 51°11.449 2°45.896 17.5 337 8.5 101580 65
2005-04-06 07:59:46 51°11.441 2°45.87 17 337 8.5 101580 67
2005-04-06 07:59:52 51°11.432 2°45.839 16.8 338 8.5 101580 67
2005-04-06 07:59:57 51°11.424 2°45.816 16.8 334 8.5 101580 67
2005-04-06 08:00:01 51°11.417 2°45.792 15.8 338 8.5 101580 67
2005-04-06 08:00:07 51°11.408 2°45.764 16.9 342 8.5 101590 65
2005-04-06 08:00:11 51°11.401 2°45.74 15.7 340 8.5 101590 65
2005-04-06 08:00:17 51°11.392 2°45.712 15.4 336 8.5 101580 66
2005-04-06 08:00:21 51°11.385 2°45.689 15.6 330 8.5 101580 66
2005-04-06 08:00:27 51°11.376 2°45.661 14.3 325 8.5 101580 66
2005-04-06 08:00:31 51°11.368 2°45.637 16.3 337 8.5 101580 66
2005-04-06 08:00:37 51°11.359 2°45.609 15.5 335 8.5 101580 66
2005-04-06 08:00:41 51°11.352 2°45.586 15 331 8.5 101580 66
2005-04-06 08:00:47 51°11.343 2°45.557 13.9 335 8.5 101580 66
2005-04-06 08:00:51 51°11.337 2°45.536 15.6 341 8.5 101580 66
2005-04-06 08:00:57 51°11.328 2°45.505 16.2 335 8.5 101580 66
2005-04-06 08:01:01 51°11.32 2°45.482 17.4 337 8.5 101580 66
2005-04-06 08:01:07 51°11.312 2°45.453 18.8 339 8.5 101580 67
2005-04-06 08:01:11 51°11.305 2°45.432 16.3 341 8.5 101580 67
2005-04-06 08:01:17 51°11.296 2°45.401 17.4 337 8.5 101590 67
2005-04-06 08:01:21 51°11.289 2°45.378 17.5 336 8.5 101590 67
2005-04-06 08:01:27 51°11.28 2°45.349 15.6 335 8.5 101580 65
2005-04-06 08:01:31 51°11.274 2°45.328 15.6 334 8.5 101580 65
2005-04-06 08:01:36 51°11.265 2°45.3 17.1 334 8.5 101570 66
2005-04-06 08:01:41 51°11.257 2°45.274 16.9 334 8.5 101570 66
2005-04-06 08:01:45 51°11.251 2°45.254 17.2 335 8.5 101590 65
2005-04-06 08:01:50 51°11.243 2°45.228 17.8 333 8.5 101590 65
2005-04-06 08:01:57 51°11.232 2°45.194 17.1 334 8.5 101580 66
2005-04-06 08:02:01 51°11.225 2°45.171 17.2 337 8.5 101580 66
2005-04-06 08:02:06 51°11.217 2°45.145 16.3 333 8.5 101570 66
2005-04-06 08:02:12 51°11.209 2°45.116 17.8 335 8.5 101570 66
2005-04-06 08:02:17 51°11.201 2°45.091 16 332 8.5 101570 65
2005-04-06 08:02:22 51°11.193 2°45.065 14.3 331 8.5 101570 65
2005-04-06 08:02:25 51°11.187 2°45.047 15 332 8.5 101580 65
2005-04-06 08:02:31 51°11.177 2°45.016 15.8 333 8.5 101580 65
2005-04-06 08:02:37 51°11.169 2°44.988 15.6 333 8.5 101570 65
2005-04-06 08:02:42 51°11.161 2°44.962 16.4 336 8.5 101570 65
2005-04-06 08:02:47 51°11.153 2°44.936 16.7 330 8.5 101580 65
2005-04-06 08:02:51 51°11.147 2°44.915 16 330 8.5 101580 65
2005-04-06 08:02:56 51°11.138 2°44.887 16 334 8.5 101590 66
2005-04-06 08:03:01 51°11.13 2°44.861 16 335 8.5 101590 66
2005-04-06 08:03:07 51°11.121 2°44.832 16 331 8.5 101580 66
2005-04-06 08:03:11 51°11.114 2°44.812 15.2 332 8.5 101580 66
2005-04-06 08:03:17 51°11.105 2°44.781 15.8 332 8.5 101580 65
2005-04-06 08:03:21 51°11.097 2°44.758 15.1 327 8.5 101580 65
2005-04-06 08:03:27 51°11.089 2°44.73 15 331 8.5 101570 65
2005-04-06 08:03:31 51°11.082 2°44.709 16.1 336 8.5 101570 65
2005-04-06 08:03:37 51°11.073 2°44.678 15.7 330 8.5 101570 66
2005-04-06 08:03:41 51°11.066 2°44.655 15.7 330 8.5 101570 66
2005-04-06 08:03:47 51°11.057 2°44.626 14.9 327 8.5 101580 65
2005-04-06 08:03:51 51°11.051 2°44.605 16.4 329 8.5 101580 65
2005-04-06 08:03:57 51°11.043 2°44.574 16.1 330 8.5 101580 66
2005-04-06 08:04:01 51°11.037 2°44.55 14.7 331 8.5 101580 66
2005-04-06 08:04:05 51°11.032 2°44.531 15 322 8.4 101580 65
2005-04-06 08:04:11 51°11.022 2°44.496 13.6 333 8.4 101580 65
2005-04-06 08:04:17 51°11.015 2°44.467 14.8 330 8.4 101570 66
2005-04-06 08:04:21 51°11.009 2°44.444 15.5 333 8.4 101570 66
2005-04-06 08:04:27 51°11.001 2°44.414 13.9 329 8.4 101570 65
2005-04-06 08:04:31 51°10.995 2°44.39 15.2 326 8.4 101570 65
2005-04-06 08:04:37 51°10.988 2°44.361 14.9 328 8.4 101580 67
2005-04-06 08:04:41 51°10.982 2°44.337 14.4 330 8.4 101580 67
2005-04-06 08:04:47 51°10.974 2°44.307 14.4 326 8.4 101580 66
2005-04-06 08:04:52 51°10.968 2°44.281 14.2 330 8.4 101580 66
2005-04-06 08:04:56 51°10.961 2°44.257 13.5 328 8.4 101580 66
2005-04-06 08:05:01 51°10.954 2°44.231 15.2 334 8.4 101580 66
2005-04-06 08:05:07 51°10.947 2°44.201 15.2 331 8.4 101580 66
2005-04-06 08:05:11 51°10.941 2°44.18 14.4 336 8.4 101580 66
2005-04-06 08:05:17 51°10.934 2°44.148 14.8 329 8.4 101580 66
2005-04-06 08:05:22 51°10.927 2°44.121 13.8 329 8.4 101580 66
2005-04-06 08:05:25 51°10.923 2°44.105 13.8 332 8.4 101570 65
2005-04-06 08:05:31 51°10.914 2°44.073 13.3 329 8.4 101570 65
2005-04-06 08:05:37 51°10.906 2°44.041 14.1 335 8.4 101590 66
2005-04-06 08:05:41 51°10.9 2°44.017 14.1 330 8.4 101590 66
2005-04-06 08:05:47 51°10.893 2°43.988 14.7 333 8.5 101580 67
2005-04-06 08:05:50 51°10.888 2°43.972 14.8 336 8.5 101580 67
2005-04-06 08:05:57 51°10.879 2°43.935 14.4 330 8.5 101590 66
2005-04-06 08:06:01 51°10.873 2°43.912 14 328 8.5 101590 66
2005-04-06 08:06:06 51°10.866 2°43.885 13.8 328 8.4 101580 66
2005-04-06 08:06:11 51°10.86 2°43.861 13.3 332 8.4 101580 66
2005-04-06 08:06:17 51°10.851 2°43.83 14.1 334 8.5 101580 66
2005-04-06 08:06:22 51°10.844 2°43.803 13.2 330 8.5 101580 66
2005-04-06 08:06:27 51°10.837 2°43.777 13.5 328 8.5 101570 66
2005-04-06 08:06:31 51°10.832 2°43.756 14.3 330 8.5 101570 66
2005-04-06 08:06:36 51°10.824 2°43.727 15.4 328 8.5 101580 67
2005-04-06 08:06:42 51°10.817 2°43.698 12.6 330 8.5 101580 67
2005-04-06 08:06:47 51°10.81 2°43.672 13.7 331 8.5 101580 65
2005-04-06 08:06:51 51°10.804 2°43.651 14 328 8.5 101580 65
2005-04-06 08:06:57 51°10.796 2°43.619 12.8 331 8.5 101570 64
2005-04-06 08:07:02 51°10.789 2°43.593 13.4 332 8.5 101570 64
2005-04-06 08:07:07 51°10.782 2°43.567 13.7 331 8.5 101580 65
2005-04-06 08:07:12 51°10.775 2°43.54 13.6 332 8.5 101580 65
2005-04-06 08:07:16 51°10.769 2°43.517 14.5 335 8.5 101580 64
2005-04-06 08:07:21 51°10.762 2°43.49 14.1 327 8.5 101580 64
2005-04-06 08:07:26 51°10.755 2°43.464 13.6 328 8.6 101580 65
2005-04-06 08:07:31 51°10.748 2°43.437 12.3 336 8.6 101580 65
2005-04-06 08:07:37 51°10.741 2°43.409 14.4 321 8.6 101580 65
2005-04-06 08:07:41 51°10.735 2°43.388 16 327 8.6 101580 65
2005-04-06 08:07:46 51°10.728 2°43.359 15.8 329 8.6 101580 65
2005-04-06 08:07:51 51°10.722 2°43.335 15.2 332 8.6 101580 65
2005-04-06 08:07:56 51°10.714 2°43.307 14.6 334 8.6 101580 64
2005-04-06 08:08:01 51°10.707 2°43.281 14.6 330 8.6 101580 64
2005-04-06 08:08:07 51°10.7 2°43.252 15.7 333 8.6 101570 64
2005-04-06 08:08:11 51°10.694 2°43.231 15.1 332 8.6 101570 64
2005-04-06 08:08:17 51°10.686 2°43.2 16.2 326 8.6 101570 64
2005-04-06 08:08:21 51°10.68 2°43.176 16.5 336 8.6 101570 64
2005-04-06 08:08:27 51°10.673 2°43.147 15.8 337 8.6 101580 63
2005-04-06 08:08:31 51°10.667 2°43.127 15.9 335 8.6 101580 63
2005-04-06 08:08:37 51°10.659 2°43.095 15.1 332 8.6 101570 63
2005-04-06 08:08:41 51°10.653 2°43.072 14.6 332 8.6 101570 63
2005-04-06 08:08:45 51°10.647 2°43.051 14.1 331 8.6 101560 63
2005-04-06 08:08:51 51°10.639 2°43.019 14.9 332 8.6 101560 63
2005-04-06 08:08:56 51°10.633 2°42.993 16.5 331 8.7 101570 64
2005-04-06 08:09:01 51°10.626 2°42.967 14.9 338 8.7 101570 64
2005-04-06 08:09:06 51°10.619 2°42.941 14.3 332 8.7 101570 65
2005-04-06 08:09:12 51°10.612 2°42.912 16.6 328 8.7 101570 65
2005-04-06 08:09:17 51°10.605 2°42.886 16.6 330 8.7 101570 65
2005-04-06 08:09:21 51°10.599 2°42.863 15.4 332 8.7 101570 65
2005-04-06 08:09:26 51°10.593 2°42.839 14.4 329 8.7 101560 65
2005-04-06 08:09:31 51°10.586 2°42.813 15.1 328 8.7 101560 65
2005-04-06 08:09:37 51°10.578 2°42.782 16 337 8.7 101570 64
2005-04-06 08:09:41 51°10.572 2°42.758 15.8 328 8.7 101570 64
2005-04-06 08:09:46 51°10.565 2°42.732 15.8 335 8.7 101560 64
2005-04-06 08:09:52 51°10.557 2°42.704 15.9 333 8.7 101560 64
2005-04-06 08:09:56 51°10.551 2°42.681 16.6 334 8.7 101570 64
2005-04-06 08:10:02 51°10.544 2°42.652 15.2 333 8.7 101570 64
2005-04-06 08:10:06 51°10.537 2°42.629 15.3 329 8.7 101560 64
2005-04-06 08:10:11 51°10.531 2°42.606 15.5 328 8.7 101560 64
2005-04-06 08:10:16 51°10.524 2°42.577 16.5 327 8.7 101560 64
2005-04-06 08:10:22 51°10.517 2°42.548 15.2 330 8.7 101560 64
2005-04-06 08:10:27 51°10.51 2°42.522 16.4 330 8.7 101560 64
2005-04-06 08:10:32 51°10.502 2°42.494 15.5 337 8.7 101560 64
2005-04-06 08:10:35 51°10.499 2°42.481 16.1 334 8.7 101560 64
2005-04-06 08:10:42 51°10.49 2°42.444 16.3 335 8.7 101560 64
2005-04-06 08:10:47 51°10.483 2°42.419 16.3 329 8.7 101560 64
2005-04-06 08:10:50 51°10.478 2°42.401 13.8 333 8.7 101560 64
2005-04-06 08:10:57 51°10.47 2°42.367 16.1 330 8.7 101560 65
2005-04-06 08:11:01 51°10.463 2°42.344 15.2 323 8.7 101560 65
2005-04-06 08:11:07 51°10.456 2°42.316 15.6 333 8.7 101570 64
2005-04-06 08:11:11 51°10.449 2°42.292 16.6 332 8.7 101570 64
2005-04-06 08:11:16 51°10.443 2°42.267 17.2 331 8.7 101560 65
2005-04-06 08:11:22 51°10.435 2°42.238 17 334 8.7 101560 65
2005-04-06 08:11:27 51°10.428 2°42.213 16.3 333 8.7 101550 65
2005-04-06 08:11:32 51°10.421 2°42.187 16 330 8.7 101550 65
2005-04-06 08:11:37 51°10.414 2°42.161 15.7 330 8.7 101560 65
2005-04-06 08:11:42 51°10.407 2°42.133 15.7 328 8.7 101560 65
2005-04-06 08:11:46 51°10.402 2°42.115 16.3 330 8.7 101550 64
2005-04-06 08:11:51 51°10.395 2°42.089 15.7 333 8.7 101550 64
2005-04-06 08:11:57 51°10.387 2°42.059 16 329 8.7 101560 64
2005-04-06 08:12:02 51°10.38 2°42.033 14.1 332 8.7 101560 64
2005-04-06 08:12:07 51°10.374 2°42.007 15.1 328 8.7 101550 64
2005-04-06 08:12:09 51°10.37 2°41.994 13.6 330 8.7 101550 64
2005-04-06 08:12:17 51°10.36 2°41.956 13.3 332 8.7 101560 65
2005-04-06 08:12:21 51°10.354 2°41.933 13.2 329 8.7 101560 65
2005-04-06 08:12:27 51°10.347 2°41.904 15.9 330 8.6 101550 66
2005-04-06 08:12:31 51°10.341 2°41.884 16.1 333 8.6 101550 66
2005-04-06 08:12:35 51°10.336 2°41.863 14.5 323 8.7 101570 67
2005-04-06 08:12:42 51°10.327 2°41.827 14.3 329 8.7 101570 67
2005-04-06 08:12:45 51°10.322 2°41.809 14.8 328 8.6 101560 67
2005-04-06 08:12:50 51°10.315 2°41.783 15.5 331 8.6 101560 67
2005-04-06 08:12:56 51°10.307 2°41.752 15.5 328 8.6 101560 66
2005-04-06 08:13:01 51°10.301 2°41.726 15.1 335 8.6 101560 66
2005-04-06 08:13:07 51°10.293 2°41.698 14.7 330 8.6 101550 65
2005-04-06 08:13:11 51°10.287 2°41.674 14.8 332 8.6 101550 65
2005-04-06 08:13:16 51°10.281 2°41.649 15.9 329 8.6 101550 66
2005-04-06 08:13:21 51°10.274 2°41.623 13.8 335 8.6 101550 66
2005-04-06 08:13:25 51°10.269 2°41.603 14.8 329 8.6 101550 66
2005-04-06 08:13:32 51°10.26 2°41.569 16.2 329 8.6 101550 66
2005-04-06 08:13:36 51°10.254 2°41.546 17.2 331 8.6 101560 64
2005-04-06 08:13:42 51°10.247 2°41.518 17.1 323 8.6 101560 64
2005-04-06 08:13:47 51°10.241 2°41.492 17.5 329 8.6 101550 64
2005-04-06 08:13:51 51°10.235 2°41.469 17.5 329 8.6 101550 64
2005-04-06 08:13:57 51°10.227 2°41.438 17 331 8.6 101540 65
2005-04-06 08:14:01 51°10.222 2°41.418 16 333 8.6 101540 65
2005-04-06 08:14:06 51°10.215 2°41.392 17.1 336 8.6 101540 64
2005-04-06 08:14:11 51°10.209 2°41.369 15.3 334 8.6 101540 64
2005-04-06 08:14:17 51°10.201 2°41.339 16.1 336 8.7 101540 64
2005-04-06 08:14:21 51°10.195 2°41.315 16.3 336 8.7 101540 64
2005-04-06 08:14:25 51°10.189 2°41.295 16 327 8.7 101540 66
2005-04-06 08:14:31 51°10.182 2°41.267 16 329 8.7 101540 66
2005-04-06 08:14:36 51°10.175 2°41.239 15.7 329 8.7 101550 66
2005-04-06 08:14:42 51°10.167 2°41.208 15.8 328 8.7 101550 66
2005-04-06 08:14:47 51°10.161 2°41.185 15.6 330 8.6 101540 65
2005-04-06 08:14:51 51°10.155 2°41.164 16.4 333 8.6 101540 65
2005-04-06 08:14:56 51°10.148 2°41.135 16.9 332 8.6 101540 64
2005-04-06 08:15:01 51°10.142 2°41.11 15 332 8.6 101540 64
2005-04-06 08:15:05 51°10.137 2°41.089 14.9 330 8.6 101550 64
2005-04-06 08:15:12 51°10.127 2°41.053 15.8 335 8.6 101550 64
2005-04-06 08:15:17 51°10.121 2°41.03 16.4 331 8.6 101540 65
2005-04-06 08:15:22 51°10.114 2°41.005 15.4 329 8.6 101540 65
2005-04-06 08:15:25 51°10.11 2°40.987 15.4 329 8.6 101550 66
2005-04-06 08:15:31 51°10.101 2°40.956 16 333 8.6 101550 66
2005-04-06 08:15:37 51°10.094 2°40.928 17.1 336 8.6 101560 67
2005-04-06 08:15:41 51°10.088 2°40.905 16.5 332 8.6 101560 67
2005-04-06 08:15:46 51°10.081 2°40.88 16.8 336 8.6 101540 66
2005-04-06 08:15:52 51°10.073 2°40.849 16.5 335 8.6 101540 66
2005-04-06 08:15:57 51°10.067 2°40.826 16.6 332 8.6 101550 66
2005-04-06 08:16:01 51°10.061 2°40.803 15.3 333 8.6 101550 66
2005-04-06 08:16:06 51°10.055 2°40.777 16.2 331 8.6 101540 65
2005-04-06 08:16:12 51°10.046 2°40.746 15.8 333 8.6 101540 65
2005-04-06 08:16:17 51°10.04 2°40.72 16.9 329 8.6 101540 65
2005-04-06 08:16:21 51°10.034 2°40.7 16.2 330 8.6 101540 65
2005-04-06 08:16:26 51°10.027 2°40.675 15.6 332 8.6 101540 65
2005-04-06 08:16:31 51°10.02 2°40.649 16.9 330 8.6 101540 65
2005-04-06 08:16:37 51°10.013 2°40.621 14.9 333 8.6 101540 66
2005-04-06 08:16:41 51°10.007 2°40.598 15.6 333 8.6 101540 66
2005-04-06 08:16:46 51°10 2°40.572 15.5 333 8.6 101530 66
2005-04-06 08:16:52 51°9.993 2°40.544 15.2 330 8.6 101530 66
2005-04-06 08:16:56 51°9.987 2°40.521 16.5 334 8.6 101550 67
2005-04-06 08:17:01 51°9.98 2°40.496 15.8 333 8.6 101550 67
2005-04-06 08:17:05 51°9.975 2°40.478 14.9 333 8.6 101550 67
2005-04-06 08:17:12 51°9.965 2°40.442 14.6 334 8.6 101550 67
2005-04-06 08:17:17 51°9.959 2°40.416 15.7 331 8.6 101540 67
2005-04-06 08:17:22 51°9.952 2°40.391 15.1 327 8.6 101540 67
2005-04-06 08:17:27 51°9.945 2°40.365 15.3 332 8.6 101550 67
2005-04-06 08:17:30 51°9.94 2°40.347 16.4 330 8.6 101550 67
2005-04-06 08:17:36 51°9.932 2°40.317 16 335 8.6 101550 66
2005-04-06 08:17:41 51°9.925 2°40.292 15.3 329 8.6 101550 66
2005-04-06 08:17:47 51°9.917 2°40.264 13.9 333 8.6 101540 66
2005-04-06 08:17:51 51°9.912 2°40.243 15.3 332 8.6 101540 66
2005-04-06 08:17:56 51°9.904 2°40.215 16 333 8.6 101540 67
2005-04-06 08:18:01 51°9.898 2°40.193 17.2 332 8.6 101540 67
2005-04-06 08:18:07 51°9.89 2°40.162 16.8 334 8.6 101540 67
2005-04-06 08:18:11 51°9.884 2°40.142 15.1 334 8.6 101540 67
2005-04-06 08:18:16 51°9.877 2°40.114 15.1 331 8.6 101550 66
2005-04-06 08:18:22 51°9.869 2°40.086 16.3 331 8.6 101550 66
2005-04-06 08:18:27 51°9.862 2°40.06 17.1 330 8.6 101540 65
2005-04-06 08:18:30 51°9.858 2°40.043 14.4 338 8.6 101540 65
2005-04-06 08:18:37 51°9.849 2°40.009 15.8 336 8.6 101550 67
2005-04-06 08:18:41 51°9.844 2°39.989 16.2 335 8.6 101550 67
2005-04-06 08:18:45 51°9.838 2°39.966 17.2 333 8.6 101540 66
2005-04-06 08:18:51 51°9.83 2°39.938 14.5 330 8.6 101540 66
2005-04-06 08:18:57 51°9.822 2°39.908 14.7 331 8.6 101530 67
2005-04-06 08:19:01 51°9.816 2°39.885 15 332 8.6 101530 67
2005-04-06 08:19:05 51°9.81 2°39.865 16.2 332 8.6 101540 65
2005-04-06 08:19:12 51°9.802 2°39.832 17.9 335 8.6 101540 65
2005-04-06 08:19:16 51°9.796 2°39.809 15.2 333 8.7 101530 65
2005-04-06 08:19:22 51°9.788 2°39.781 18.4 331 8.7 101530 65
2005-04-06 08:19:27 51°9.782 2°39.756 17.1 333 8.7 101540 66
2005-04-06 08:19:31 51°9.776 2°39.733 16.8 339 8.7 101540 66
2005-04-06 08:19:37 51°9.768 2°39.706 17.9 335 8.7 101530 65
2005-04-06 08:19:41 51°9.762 2°39.683 17.9 335 8.7 101530 65
2005-04-06 08:19:46 51°9.756 2°39.658 16.4 332 8.7 101540 64
2005-04-06 08:19:51 51°9.749 2°39.636 16.3 336 8.7 101540 64
2005-04-06 08:19:56 51°9.742 2°39.608 16.9 330 8.7 101530 64
2005-04-06 08:20:01 51°9.735 2°39.583 17.4 328 8.7 101530 64
2005-04-06 08:20:06 51°9.729 2°39.56 16.9 332 8.7 101540 64
2005-04-06 08:20:11 51°9.722 2°39.535 17.6 334 8.7 101540 64
2005-04-06 08:20:17 51°9.713 2°39.506 17.3 331 8.7 101550 65
2005-04-06 08:20:22 51°9.706 2°39.48 15.1 336 8.7 101550 65
2005-04-06 08:20:26 51°9.7 2°39.458 17.1 333 8.7 101540 65
2005-04-06 08:20:32 51°9.692 2°39.427 17 332 8.7 101540 65
2005-04-06 08:20:37 51°9.686 2°39.405 17.9 333 8.7 101550 65
2005-04-06 08:20:41 51°9.68 2°39.382 16.4 329 8.7 101550 65
2005-04-06 08:20:47 51°9.672 2°39.354 16.4 331 8.7 101530 65
2005-04-06 08:20:51 51°9.666 2°39.331 15.2 334 8.7 101530 65
2005-04-06 08:20:57 51°9.659 2°39.304 16.1 328 8.7 101540 65
2005-04-06 08:21:02 51°9.653 2°39.279 17.1 330 8.7 101540 65
2005-04-06 08:21:07 51°9.646 2°39.254 16.1 329 8.7 101530 65
2005-04-06 08:21:10 51°9.641 2°39.237 16 329 8.7 101530 65
2005-04-06 08:21:17 51°9.632 2°39.204 15.9 327 8.7 101550 65
2005-04-06 08:21:21 51°9.625 2°39.182 15.3 331 8.7 101550 65
2005-04-06 08:21:27 51°9.618 2°39.154 15.2 330 8.7 101540 65
2005-04-06 08:21:31 51°9.611 2°39.131 14.6 331 8.7 101540 65
2005-04-06 08:21:37 51°9.604 2°39.104 16.5 335 8.7 101540 66
2005-04-06 08:21:41 51°9.598 2°39.081 14.5 328 8.7 101540 66
2005-04-06 08:21:47 51°9.59 2°39.054 14.4 330 8.7 101540 66
2005-04-06 08:21:51 51°9.584 2°39.031 14.3 333 8.7 101540 66
2005-04-06 08:21:57 51°9.577 2°39.004 15.5 333 8.7 101550 67
2005-04-06 08:22:01 51°9.571 2°38.981 15.3 329 8.7 101550 67
2005-04-06 08:22:07 51°9.563 2°38.954 14.9 331 8.7 101540 66
2005-04-06 08:22:12 51°9.556 2°38.928 14.4 332 8.7 101540 66
2005-04-06 08:22:16 51°9.55 2°38.906 15.9 337 8.7 101540 66
2005-04-06 08:22:21 51°9.543 2°38.881 14.7 335 8.7 101540 66
2005-04-06 08:22:27 51°9.536 2°38.854 14.7 332 8.7 101540 66
2005-04-06 08:22:31 51°9.53 2°38.834 16 333 8.7 101540 66
2005-04-06 08:22:36 51°9.523 2°38.806 14.1 333 8.7 101540 66
2005-04-06 08:22:42 51°9.516 2°38.778 15.5 334 8.7 101540 66
2005-04-06 08:22:46 51°9.51 2°38.759 15.8 332 8.7 101540 66
2005-04-06 08:22:50 51°9.504 2°38.736 15.8 332 8.7 101540 66
2005-04-06 08:22:57 51°9.495 2°38.704 15.3 330 8.7 101540 65
2005-04-06 08:23:01 51°9.489 2°38.682 15 333 8.7 101540 65
2005-04-06 08:23:07 51°9.481 2°38.654 15 329 8.7 101540 65
2005-04-06 08:23:10 51°9.477 2°38.639 15.8 335 8.7 101540 65
2005-04-06 08:23:17 51°9.466 2°38.603 15.8 334 8.7 101530 65
2005-04-06 08:23:21 51°9.461 2°38.583 14.9 331 8.7 101530 65
2005-04-06 08:23:27 51°9.453 2°38.556 16.9 334 8.7 101540 65
2005-04-06 08:23:32 51°9.446 2°38.531 15.1 332 8.7 101540 65
2005-04-06 08:23:37 51°9.439 2°38.506 14.4 330 8.7 101540 65
2005-04-06 08:23:41 51°9.433 2°38.486 15 330 8.7 101540 65
2005-04-06 08:23:46 51°9.426 2°38.459 16.4 332 8.7 101540 65
2005-04-06 08:23:51 51°9.42 2°38.437 15.2 334 8.7 101540 65
2005-04-06 08:23:57 51°9.411 2°38.407 16.1 329 8.7 101540 65
2005-04-06 08:24:01 51°9.406 2°38.387 16.8 327 8.7 101540 65
2005-04-06 08:24:07 51°9.398 2°38.358 16.4 328 8.7 101540 65
2005-04-06 08:24:11 51°9.392 2°38.336 15.1 327 8.7 101540 65
2005-04-06 08:24:17 51°9.384 2°38.309 14.7 333 8.7 101530 66
2005-04-06 08:24:21 51°9.378 2°38.287 14.3 330 8.7 101530 66
2005-04-06 08:24:27 51°9.371 2°38.26 15.2 325 8.7 101530 64
2005-04-06 08:24:31 51°9.365 2°38.24 15 331 8.7 101530 64
2005-04-06 08:24:37 51°9.357 2°38.21 15.1 329 8.8 101530 65
2005-04-06 08:24:41 51°9.351 2°38.188 13.7 326 8.8 101530 65
2005-04-06 08:24:46 51°9.344 2°38.163 13.7 325 8.7 101530 65
2005-04-06 08:24:52 51°9.336 2°38.136 14.7 330 8.7 101530 65
2005-04-06 08:24:57 51°9.33 2°38.112 14.1 326 8.7 101540 65
2005-04-06 08:25:01 51°9.325 2°38.091 15 329 8.7 101540 65
2005-04-06 08:25:07 51°9.319 2°38.066 14 330 8.7 101530 66
2005-04-06 08:25:11 51°9.315 2°38.048 14.3 328 8.7 101530 66
2005-04-06 08:25:17 51°9.31 2°38.023 14.2 328 8.7 101540 66
2005-04-06 08:25:21 51°9.306 2°38.004 13.4 326 8.7 101540 66
2005-04-06 08:25:27 51°9.301 2°37.982 13.7 324 8.7 101540 65
2005-04-06 08:25:31 51°9.297 2°37.965 14 325 8.7 101540 65
2005-04-06 08:25:37 51°9.293 2°37.946 12.6 325 8.7 101540 64
2005-04-06 08:25:41 51°9.288 2°37.932 11.6 325 8.7 101540 64
2005-04-06 08:25:47 51°9.283 2°37.916 10.6 325 8.8 101540 65
2005-04-06 08:25:51 51°9.278 2°37.903 11.2 327 8.8 101540 65
2005-04-06 08:25:57 51°9.273 2°37.89 11.4 329 8.8 101540 65
2005-04-06 08:26:02 51°9.267 2°37.877 11.2 326 8.8 101540 65
2005-04-06 08:26:07 51°9.262 2°37.865 11.9 328 8.7 101540 66
2005-04-06 08:26:11 51°9.258 2°37.856 12.4 322 8.7 101540 66
2005-04-06 08:26:16 51°9.253 2°37.843 12.4 324 8.8 101550 65
2005-04-06 08:26:22 51°9.249 2°37.83 11.3 321 8.8 101550 65
2005-04-06 08:26:25 51°9.246 2°37.822 12.7 320 8.8 101550 66
2005-04-06 08:26:31 51°9.241 2°37.809 11 323 8.8 101550 66
2005-04-06 08:26:37 51°9.237 2°37.797 11.1 318 8.7 101540 66
2005-04-06 08:26:42 51°9.233 2°37.786 12.5 323 8.7 101540 66
2005-04-06 08:26:47 51°9.228 2°37.776 12.6 328 8.7 101540 65
2005-04-06 08:26:51 51°9.225 2°37.768 10 322 8.7 101540 65
2005-04-06 08:26:57 51°9.22 2°37.756 10.8 325 8.7 101540 66
2005-04-06 08:27:02 51°9.216 2°37.746 10.7 328 8.7 101540 66
2005-04-06 08:27:07 51°9.211 2°37.737 10.7 326 8.7 101550 66
2005-04-06 08:27:12 51°9.207 2°37.728 11.2 325 8.7 101550 66
2005-04-06 08:27:17 51°9.203 2°37.719 10.7 333 8.7 101540 64
2005-04-06 08:27:21 51°9.199 2°37.71 10.5 322 8.7 101540 64
2005-04-06 08:27:26 51°9.194 2°37.702 11.1 322 8.7 101550 65
2005-04-06 08:27:31 51°9.19 2°37.694 12.5 323 8.7 101550 65
2005-04-06 08:27:37 51°9.185 2°37.683 13.2 319 8.8 101540 65
2005-04-06 08:27:41 51°9.181 2°37.674 12.8 324 8.8 101540 65
2005-04-06 08:27:46 51°9.177 2°37.664 13.1 322 8.8 101550 66
2005-04-06 08:27:52 51°9.173 2°37.653 11.7 329 8.8 101550 66
2005-04-06 08:27:57 51°9.169 2°37.642 11.8 327 8.7 101540 65
2005-04-06 08:28:01 51°9.165 2°37.632 12.2 320 8.7 101540 65
2005-04-06 08:28:06 51°9.162 2°37.622 12 319 8.8 101540 65
2005-04-06 08:28:11 51°9.158 2°37.609 11.8 317 8.8 101540 65
2005-04-06 08:28:17 51°9.155 2°37.596 10.8 315 8.8 101540 65
2005-04-06 08:28:21 51°9.152 2°37.585 11.1 318 8.8 101540 65
2005-04-06 08:28:27 51°9.149 2°37.571 10 318 8.8 101540 64
2005-04-06 08:28:32 51°9.145 2°37.557 11.4 323 8.8 101540 64
2005-04-06 08:28:37 51°9.142 2°37.545 10.8 322 8.8 101540 64
2005-04-06 08:28:42 51°9.139 2°37.532 10.5 318 8.8 101540 64
2005-04-06 08:28:46 51°9.136 2°37.52 10.4 323 8.8 101540 65
2005-04-06 08:28:51 51°9.133 2°37.508 11.6 318 8.8 101540 65
2005-04-06 08:28:57 51°9.129 2°37.491 11 41 8.8 101550 66
2005-04-06 08:29:02 51°9.126 2°37.479 11.5 229 8.8 101550 66
2005-04-06 08:29:07 51°9.123 2°37.465 12 317 8.8 101550 67
2005-04-06 08:29:12 51°9.12 2°37.452 10.9 43 8.8 101550 67
2005-04-06 08:29:17 51°9.117 2°37.438 12 320 8.7 101550 66
2005-04-06 08:29:22 51°9.114 2°37.424 12 314 8.7 101550 66
2005-04-06 08:29:27 51°9.112 2°37.41 11.3 312 8.7 101540 65
2005-04-06 08:29:31 51°9.11 2°37.397 11.7 307 8.7 101540 65
2005-04-06 08:29:37 51°9.108 2°37.379 12.5 312 8.7 101540 65
2005-04-06 08:29:42 51°9.106 2°37.366 10.6 41 8.7 101540 65
2005-04-06 08:29:47 51°9.104 2°37.351 10.9 42 8.8 101540 65
2005-04-06 08:29:51 51°9.102 2°37.338 10.1 312 8.8 101540 65
2005-04-06 08:29:57 51°9.1 2°37.322 11.1 314 8.8 101540 64
2005-04-06 08:30:02 51°9.099 2°37.307 12.3 317 8.8 101540 64
2005-04-06 08:30:06 51°9.097 2°37.295 11.1 227 8.8 101540 65
2005-04-06 08:30:11 51°9.096 2°37.281 11.3 306 8.8 101540 65
2005-04-06 08:30:17 51°9.096 2°37.265 11.9 308 8.8 101540 66
2005-04-06 08:30:22 51°9.095 2°37.251 10 302 8.8 101540 66
2005-04-06 08:30:27 51°9.095 2°37.24 9 306 8.8 101540 65
2005-04-06 08:30:31 51°9.095 2°37.231 10.5 306 8.8 101540 65
2005-04-06 08:30:35 51°9.095 2°37.223 9.5 303 8.8 101540 65
2005-04-06 08:30:42 51°9.093 2°37.21 10.2 313 8.8 101540 65
2005-04-06 08:30:46 51°9.093 2°37.205 10 313 8.8 101530 65
2005-04-06 08:30:51 51°9.091 2°37.197 10.4 312 8.8 101530 65